Powrót do katalogu

STARLINK-36570

AktywnyŁącznośćVLEO
NORAD 67640·PAYLOAD·🇺🇸 United States

Wystrzelony Jan 30, 2026 z Cape Canaveral Space Force Station

Loading…

Następne Przeloty (najbliższe 24 godziny)

TLE

ŚwieżeSource: CelesTrak SupGP

Epoka: Sep 15, 2026, 04:14 UTC

1 67640C 26020Z   26258.17687500  .00061680  00000+0  22336-2 0  2586
2 67640  43.0021 149.4490 0001444 271.1151 159.3710 15.27553467    19

Śledź STARLINK-36570 w czasie rzeczywistym z AllMySat

Download on the App Store